Location: ???????
(48.5603°N, 37.6273°E)
Time: 18:59:25
(UTC+00:00)

Daily predictions for brighter satellites

Satellite Brightness Start Highest point End
(mag) Time Altitude Azimuth Time Altitude Azimuth Time Altitude Azimuth
CZ-2D R/B 3.5 15:41:08 10° S 15:44:56 78° WSW 15:48:46 10° NNW
Cosmos 1867 4.3 15:40:28 10° SW 15:45:49 56° NW 15:51:14 10° NNE
SJ-11-01 4.5 15:41:25 10° SE 15:45:56 50° ENE 15:50:30 10° N
CZ-2C R/B 3.5 15:42:13 10° S 15:47:57 78° WSW 15:53:28 10° NNW
Cosmos 2322 Rocket 2.6 15:44:21 10° S 15:49:36 43° ESE 15:54:54 10° NE
Cosmos 1666 Rocket 3.5 15:45:40 10° S 15:49:57 63° E 15:54:15 10° NNE
Nadezhda 3 Rocket 4.2 15:44:16 10° N 15:50:28 52° ENE 15:56:40 10° SSE
Cosmos 1862 Rocket 3.8 15:46:30 10° N 15:50:55 52° ENE 15:55:17 10° SSE
ERBS 2.4 15:49:14 10° WSW 15:52:33 77° NW 15:55:53 10° NE
Cosmos 1689 Rocket 3.0 15:50:37 10° NE 15:53:05 25° E 15:55:32 10° SSE
Meteor 1-25 Rocket 4.3 15:50:33 10° S 15:56:15 67° E 16:01:54 10° NNE
Sich 1 3.5 15:53:19 10° SSW 15:57:41 68° W 16:02:08 10° N
Cosmos 2074 Rocket 4.0 15:51:42 10° S 15:57:56 76° E 16:04:12 10° NNE
Cosmos 2154 Rocket 4.1 15:52:10 10° SSE 15:58:08 51° E 16:04:06 10° NNE
Cosmos 1461 3.3 15:55:40 10° SW 16:00:25 81° NW 16:05:12 10° NE
Aureole 2 Rocket 2.1 15:58:56 10° N 16:01:21 36° ENE 16:03:41 10° SE
YAOGAN 1 2.5 16:02:28 10° SSE 16:06:48 82° ENE 16:11:09 10° NNW
APEX 4.4 16:04:44 10° NW 16:07:17 31° WSW 16:09:44 10° S
Cosmos 2219 Rocket 3.7 16:04:58 10° SE 16:07:38 14° E 16:10:18 10° ENE
Helios 1A Rocket 3.1 16:03:59 10° SE 16:07:55 51° ENE 16:11:51 10° N
USA 234 4.1 16:05:56 10° ENE 16:11:35 30° SE 16:17:13 10° S
COSMO-SKYMED 1 3.4 16:07:47 10° N 16:12:04 56° WNW 16:16:18 10° SSW
Meteor 1-18 Rocket 4.3 16:07:04 10° N 16:13:02 75° ENE 16:18:57 10° SSE
Cosmos 2263 Rocket 3.7 16:08:00 10° NW 16:13:08 39° WSW 16:18:16 10° S
FALCON 9 DEB 4.1 16:10:56 10° WNW 16:13:55 35° N 16:16:20 14° ENE
SL-16 R/B 2.2 16:08:20 10° SSW 16:14:00 81° ESE 16:19:43 10° NNE
GP-B 3.6 16:09:58 10° SE 16:14:02 36° E 16:18:05 10° NNE
SJ-6B 4.2 16:11:18 12° ESE 16:14:07 22° ENE 16:17:16 10° NNE
Abrixas rocket 1.4 16:11:44 10° WSW 16:14:13 77° S 16:15:47 20° E
Cosmos 1992 Rocket 4.1 16:10:03 10° S 16:15:09 56° ESE 16:20:17 10° NNE
ARGOS 3.1 16:10:11 10° SSE 16:15:35 75° ENE 16:21:03 10° NNW
Cosmos 968 Rocket 3.9 16:10:35 10° NNW 16:15:50 69° WSW 16:21:04 10° S
Cosmos 2184 Rocket 4.1 16:12:19 10° S 16:18:28 81° W 16:24:44 10° N
Cosmos 1486 Rocket 4.3 16:13:59 10° NNW 16:19:16 73° WSW 16:24:33 10° SSE
SeaSat 1 2.7 16:17:33 10° NE 16:22:19 46° ESE 16:27:02 10° S
Okean 1 3.5 16:20:17 10° NNW 16:24:19 78° W 16:28:21 10° S
SJ 16-02 3.2 16:22:23 10° NNE 16:24:44 14° NE 16:25:34 13° ENE
Cosmos 1515 4.0 16:21:09 10° NNW 16:24:59 72° W 16:28:46 10° S
CZ-2C R/B 2.8 16:20:37 10° NNE 16:26:01 53° E 16:31:15 10° S
Cosmos 1633 Rocket 3.5 16:21:41 10° SSW 16:26:05 68° W 16:30:31 10° N
FALCON 9 DEB 4.0 16:23:34 10° WNW 16:26:31 34° N 16:28:22 18° ENE
Okean 1-7 3.4 16:22:28 10° N 16:26:38 41° ENE 16:30:44 10° SE
H-2A R/B 2.7 16:22:29 10° S 16:27:53 64° WSW 16:33:19 10° NNW
OBJECT-B 2.2 16:30:18 21° ENE 16:30:18 21° ENE 16:32:47 10° NNE
SL-8 Rocket 4.4 16:24:40 10° SSE 16:30:19 38° E 16:35:57 10° NNE
Gbstr 26 Del rocket 3.6 16:27:30 10° W 16:31:55 62° N 16:35:54 18° ENE
CZ-4 R/B 2.6 16:28:45 10° S 16:32:26 43° W 16:36:12 10° NNW
DMSP B5D2-2 4.4 16:28:03 10° NNE 16:33:00 40° E 16:37:52 10° SSE
Cosmos 2237 4.2 16:27:32 10° SSW 16:33:10 63° ESE 16:38:51 10° NNE
SAR-Lupe-4 3.5 16:32:08 10° NNE 16:35:44 89° ESE 16:39:19 10° SSW
USA 305 3.8 16:31:52 10° WNW 16:35:56 40° N 16:38:44 18° ENE
SL-4 R/B 1.7 16:38:10 10° WNW 16:41:41 60° NNE 16:43:04 32° E
Cosmos 1869 Rocket 4.2 16:38:58 10° SSE 16:42:48 31° E 16:46:41 10° NNE
Cosmos 2366 rocket 4.4 16:39:27 10° SSE 16:45:15 40° E 16:51:06 10° NNE
Cosmos 1354 Rocket 4.0 16:40:40 10° NNW 16:45:57 84° WSW 16:51:11 10° SSE
USA 307 3.9 16:43:10 10° WNW 16:47:13 39° N 16:49:33 21° NE
CSL-04 Rocket 3.9 16:42:26 10° S 16:47:59 76° WSW 16:53:31 10° NNW
Cosmos 1844 Rocket 2.6 16:42:51 10° NNW 16:48:27 88° WSW 16:54:02 10° SSE
ATLAS CENTAUR R/B 0.9 16:45:17 10° SSW 16:48:51 62° SE 16:50:44 26° NE
USA 306 3.9 16:46:39 10° WNW 16:50:40 39° N 16:52:50 23° NE
Okean-O 4.1 16:46:37 10° SSW 16:50:46 39° W 16:54:56 10° NNW
FALCON 9 DEB 3.3 16:48:25 10° WNW 16:51:50 67° SSW 16:53:01 36° SE
USA 186 2.2 16:53:32 32° N 16:53:32 32° N 16:55:06 10° N
ERS-2 2.9 16:49:09 10° N 16:52:44 54° WNW 16:56:18 10° SSW
Cosmos 2341 Rocket 3.9 16:47:06 10° S 16:53:22 70° E 16:59:37 10° NNE
Cosmos 1777 Rocket 4.1 16:49:36 10° NNW 16:54:47 57° ENE 16:57:41 25° SE
Cosmos 1378 4.3 16:52:05 10° N 16:54:38 26° NE 16:54:38 26° NE
Cosmos 1503 Rocket 4.5 16:51:03 10° NNW 16:56:10 61° WSW 17:01:15 10° S
Meteor 1-5 Rocket 4.0 16:51:15 10° S 16:56:34 70° E 17:02:04 10° NNE
FALCON 9 DEB 3.8 16:54:09 10° WNW 16:57:08 37° N 16:57:39 34° NNE
Cosmos 2333 4.4 16:51:49 10° S 16:57:10 46° ESE 17:02:37 10° NE
USA 308 3.9 16:53:49 10° WNW 16:57:51 39° N 16:59:43 25° NE
SPOT 3 Rocket 4.4 16:57:20 28° ENE 16:58:09 29° ENE 17:02:36 10° N
FALCON 9 DEB 3.9 16:55:59 10° WNW 16:59:00 36° N 16:59:31 34° NNE
Cosmos 1666 2.5 16:55:48 10° S 16:59:27 61° E 17:03:10 10° NNE
Cosmos 1844 3.7 16:54:14 10° NNW 17:00:03 87° WSW 17:05:00 14° SSE
Cosmos 2360 Rocket 2.1 16:57:49 10° SSW 17:03:28 88° ESE 17:09:12 10° NNE
Ariane Rocket 3.0 17:01:52 25° SE 17:04:46 58° ENE 17:09:47 10° N
Cosmos 1727 Rocket 4.2 16:59:28 10° N 17:05:24 46° ENE 17:08:09 29° SE
Okean 3 3.6 17:01:24 10° N 17:05:34 51° ENE 17:06:23 44° ESE
Cosmos 2278 Rocket 3.0 17:00:32 10° NNW 17:05:34 31° NE 17:06:44 29° ENE
Cosmos 2221 Rocket 4.5 17:04:50 10° N 17:08:09 31° NE 17:08:09 31° NE
Meteor 2-4 Rocket 4.3 17:05:46 10° NNW 17:11:31 63° W 17:17:20 10° S
Cosmos 2218 Rocket 4.0 17:05:46 10° S 17:12:04 64° E 17:18:23 10° NNE
Cosmos 2333 Rocket 2.3 17:07:55 10° S 17:13:22 50° ESE 17:18:53 10° NE
Cosmos 1703 Rocket 4.1 17:12:21 10° NNW 17:16:43 60° W 17:20:59 10° S
SME Rocket 4.1 17:11:09 10° NNE 17:19:37 69° ESE 17:25:01 10° S
Cosmos 1943 Rocket 4.2 17:21:55 10° N 17:24:39 13° NNE 17:25:21 13° NE
Cosmos 864 Rocket 4.3 17:22:52 10° S 17:29:01 78° E 17:35:15 10° NNE
ERBS 4.2 17:26:26 10° WNW 17:29:08 23° NNW 17:29:29 22° N
BREEZE-M DEB (TANK) 3.1 17:28:06 10° WSW 17:30:49 36° SW 17:30:49 36° SW
Cosmos 2322 Rocket 3.6 17:28:34 10° WSW 17:33:44 37° NW 17:38:57 10° NNE
Resurs 01 Rocket 2.4 17:35:07 39° NNE 17:35:07 39° NNE 17:38:17 10° N
Cosmos 1959 Rocket 4.3 17:28:21 10° S 17:34:27 88° E 17:40:37 10° N
ATLAS 5 CENTAUR R/B 4.1 17:34:22 10° W 17:40:18 22° NW 17:42:24 14° N
Lacrosse 4 Rocket 3.4 17:36:43 10° SSW 17:38:01 19° SSW 17:38:01 19° SSW
COSMOS 2428 2.8 17:37:47 10° SSW 17:50:21 - NNE 17:42:30 55° SSE
Cosmos 192 4.3 17:38:43 10° SSW 17:43:37 84° WNW 17:48:34 10° NNE
MOS 1 4.5 17:42:50 25° S 17:46:14 69° WSW 17:51:55 10° NNW
Meteor 1-23 Rocket 4.0 17:41:36 10° N 17:47:14 83° ENE 17:48:08 64° SSE
ASTEX 1 3.5 17:42:33 10° N 17:47:26 73° W 17:50:36 22° SSW
SJ-6B 4.1 17:46:54 27° SSW 17:48:32 40° W 17:52:23 10° NNW
BREEZE-M DEB (TANK) 4.2 17:33:11 10° W 17:49:21 69° SSW 17:50:35 55° SE
Meteor 1-11 Rocket 3.8 17:44:09 10° SSW 17:49:52 78° WNW 17:55:31 10° N
Cosmos 2219 Rocket 2.0 17:45:04 10° SSW 17:50:39 82° ESE 17:56:19 10° NNE
USA 234 3.1 17:52:33 41° ENE 17:55:09 88° SSE 18:01:43 10° WSW
SL-16 R/B 4.4 17:54:19 10° W 17:58:48 23° NW 18:03:19 10° N
SeaSat 1 4.0 17:55:18 10° NNE 17:59:43 34° NW 18:04:07 10° WSW
Resurs 1-3 4.1 18:01:24 56° W 18:01:24 56° W 18:05:31 10° NNW
Terra 4.2 18:04:04 12° NNE 18:04:04 12° NNE 18:04:38 10° NNE
OBJECT-B 3.3 18:03:22 22° WNW 18:03:22 22° WNW 18:05:11 10° NW
SJ 16-02 2.3 17:59:33 10° NNW 18:02:34 43° NNW 18:02:34 43° NNW
Meteor 2-20 Rocket 4.2 17:58:44 10° N 18:04:53 80° E 18:04:58 80° E
Cosmos 2369 Rocket 4.2 18:06:23 10° N 18:08:55 15° NNE 18:08:55 15° NNE
Cosmos 2322 4.1 18:04:54 10° SW 18:10:34 61° WNW 18:16:15 10° NNE
Gbstr 26 Del rocket 3.9 18:14:21 10° WNW 18:18:27 60° NW 18:18:27 60° NW
ATLAS CENTAUR R/B 3.9 18:25:19 10° W 18:26:57 17° WNW 18:26:57 17° WNW
NOSS 3-3 (A) 4.4 18:23:09 10° NW 18:30:38 86° SW 18:31:14 78° SSE
NOSS 3-3 (C) 4.4 18:23:15 10° NW 18:30:44 86° SW 18:31:19 79° SSE
Cosmos 2360 Rocket 4.4 18:43:57 10° W 18:48:17 22° NW 18:52:36 10° N
Cosmos 2278 Rocket 3.2 18:44:25 10° NW 18:48:36 44° WNW 18:48:36 44° WNW
Cosmos 2333 Rocket 3.7 18:52:42 10° WSW 18:57:51 34° NW 19:03:04 10° NNE
Cosmos 1943 Rocket 4.0 19:04:25 10° NNW 19:06:52 25° N 19:06:52 25° N
Resurs 01 Rocket 4.4 19:12:41 16° WNW 19:12:41 16° WNW 19:14:04 10° NW
Cosmos 2219 Rocket 4.3 19:30:57 10° W 19:35:18 23° NW 19:39:43 10° N
USA 234 4.4 19:39:54 38° WNW 19:39:54 38° WNW 19:44:08 10° W
ATLAS 3B R/B 4.4 23:51:14 24° NNW 23:51:22 24° N 23:56:46 10° NE
